Powrót do katalogu

STARLINK-4104

AktywnyŁącznośćVLEO
NORAD 53163·PAYLOAD·🇺🇸 United States

Wystrzelony Jul 17, 2022 z Cape Canaveral Space Force Station

Loading…

Następne Przeloty (najbliższe 24 godziny)

TLE

ŚwieżeSource: CelesTrak SupGP

Epoka: Sep 14, 2026, 20:38 UTC

1 53163C 22083AH  26257.86020833  .00038389  00000+0  11344-2 0  2577
2 53163  53.1597  29.9740 0001163  81.3130 263.4372 15.34367910    15

Śledź STARLINK-4104 w czasie rzeczywistym z AllMySat

Download on the App Store